#timestamp,LO_Frequency,Hit 
1501531215.0,286046998.5,P
1501531215.9,286046998.5,P
1501531235.7,286047000.9,N
1501531255.6,286046998.1,N
1501531275.4,286046998.2,N
1501531295.3,286046998.6,N
1501531315.1,286046998.4,P
1501531335.8,286047001.2,P
1501531355.7,286046998.2,N
1501531375.5,286047000.9,N
1501531395.4,286046998.1,N
1501531415.2,286046999.3,N
1501531435.0,286046997.0,N
1501531435.9,286046997.0,N
1501531455.8,286046997.0,N
1501531475.6,286046996.9,N
1501531495.5,286046999.3,N
1501531515.3,286046997.1,N
1501531535.1,286046997.1,N
1501531555.9,286046997.3,N
1501531575.7,286046997.1,N
1501531595.5,286046999.1,N
1501531615.4,286046996.8,N
1501531635.2,286046996.7,N
1501531655.1,286046996.6,N
1501531656.0,286046996.6,N
1501531675.8,286046997.3,N
1501531695.6,286046995.3,P
1501531715.1,286046999.2,N
1501531716.0,286046999.2,N
1501531735.8,286046998.4,N
1501531755.7,286047000.8,N
1501531775.5,286046998.1,N
1501531795.3,286046998.2,N
1501531815.2,286047000.6,N
1501531835.0,286047000.9,N
1501531835.9,286047000.9,N
1501531855.8,286047000.7,N
1501531875.6,286046998.2,N
1501531895.4,286046998.6,N
1501531915.3,286046998.5,N
1501531935.1,286046998.5,N
1501531955.8,286047001.2,N
1501531975.7,286047000.8,P
1501531995.5,286046998.5,N
1501532015.4,286046998.5,N
1501532035.2,286046998.6,N
1501532055.0,286046998.2,N
1501532055.9,286046998.2,N
1501532075.8,286047001.1,N
1501532095.6,286047000.0,N
1501532115.5,286047000.4,N
1501532135.3,286047000.2,N
1501532155.1,286047002.4,N
1501532175.9,286047002.5,N
1501532195.7,286047002.6,N
1501532215.5,286047002.1,N
1501532235.4,286047002.5,N
1501532255.2,286047002.6,N
1501532275.1,286046999.7,N
1501532276.0,286046999.7,N
1501532295.8,286047002.1,N
1501532315.6,286047004.3,N
1501532355.3,286047003.9,N
1501532375.2,286047004.3,N
1501532395.0,286047004.0,N
1501532395.9,286047004.0,N
1501532415.7,286047002.2,N
1501532435.6,286047001.9,N
1501532455.4,286047004.4,N
1501532475.3,286047004.2,N
1501532495.1,286047002.0,N
1501532496.0,286047002.0,N
1501532515.8,286047002.5,N
1501532535.7,286047002.5,N
1501532555.5,286047004.3,N
1501532575.3,286047001.6,N
1501532595.2,286047001.9,N
1501532615.0,286047004.3,N
1501532616.0,286047004.3,N
1501532635.8,286047001.7,N
1501532655.7,286047001.5,N
1501532675.5,286047004.0,N
1501532695.4,286047001.3,N
1501532715.2,286047002.6,N
1501532735.0,286047001.3,N
1501532735.9,286047001.3,N
1501532755.8,286047004.3,P
1501532775.6,286047000.5,N
1501532795.4,286047001.2,N
1501532815.3,286047000.9,N
1501532835.1,286047002.5,N
1501532855.9,286047002.6,N
1501532875.7,286046999.7,N
1501532895.5,286047002.2,N
1501532915.4,286047004.2,P
1501532935.2,286047000.4,N
1501532955.1,286047001.0,N
1501532956.0,286047001.0,N
1501532975.8,286047000.4,N
1501532995.6,286046998.9,N
1501533015.5,286046998.5,N
1501533035.3,286046997.6,N
1501533055.1,286046997.9,N
1501533075.9,286046995.0,N
1501533095.7,286046994.9,N
1501533115.6,286046997.4,N
1501533135.4,286046996.9,N
1501533155.2,286046999.2,N
1501533175.1,286046999.2,N
1501533176.0,286046999.2,N
1501533195.8,286046997.2,N
1501533215.7,286046995.4,N
1501533235.5,286046995.5,N
1501533255.3,286046997.9,N
1501533275.2,286046995.2,N
1501533295.9,286046995.0,N
1501533315.7,286046995.1,N
1501533335.6,286046997.5,N
1501533355.4,286046997.0,N
1501533375.3,286046998.2,N
1501533395.1,286046999.3,N
1501533396.0,286046999.3,N
1501533415.8,286046996.9,N
1501533435.7,286046998.6,N
1501533455.5,286047001.2,N
1501533475.4,286046998.8,N
1501533495.2,286046999.0,N
1501533515.0,286046996.6,N
1501533515.9,286046996.6,N
1501533535.8,286046997.8,N
1501533555.6,286046997.0,N
1501533575.5,286046999.3,P
1501533595.3,286047000.4,N
1501533615.1,286047001.0,N
1501533635.9,286047000.2,N
1501533655.7,286046998.5,N
1501533675.5,286047000.6,N
1501533695.4,286046999.8,N
1501533715.2,286047002.1,N
1501533735.1,286047002.1,N
1501533736.0,286047002.1,N
1501533755.8,286047002.3,N
1501533775.6,286046999.8,N
1501533795.5,286047002.1,N
1501533815.3,286046999.7,N
1501533835.3,286047002.4,N
1501533855.1,286047002.0,N
1501533875.8,286047002.5,N
1501533895.7,286047002.5,N
1501533915.5,28601501533935.5,286047001.9,P
1501533955.3,286047001.6,P
1501533975.1,286047002.2,P
1501533995.9,286047001.9,P
1501534015.7,286047000.0,N
1501534035.6,286047000.8,N
1501534055.4,286047000.6,N
1501534075.2,286047000.5,N
1501534095.1,286047000.3,N
1501534096.0,286047000.3,N
1501534115.8,286046999.9,N
1501534135.7,286047001.0,N
1501534155.5,286047000.7,N
1501534175.3,286046998.3,N
1501534195.2,286047000.9,N
1501534215.0,286047000.9,N
1501534215.9,286047000.9,N
1501534235.8,286047000.8,N
1501534255.6,286047000.8,N
1501534275.4,286047000.8,N
1501534295.3,286047000.6,N
1501534315.1,286046999.9,N
1501534335.9,286047000.4,N
1501534355.7,286047001.1,N
1501534375.5,286047000.7,N
1501534395.4,286046998.1,N
1501534415.2,286046998.4,N
1501534435.0,286046998.7,N
1501534436.0,286046998.7,N
1501534455.8,286046998.3,N
1501534475.6,286046999.0,N
1501534495.5,286046999.0,N
1501534515.3,286046999.2,N
1501534535.1,286046999.1,N
1501534555.9,286046998.9,N
1501534575.7,286046997.4,N
1501534595.6,286046999.5,N
1501534615.4,286046999.3,N
1501534635.2,286046999.2,N
1501534655.1,286046999.6,N
1501534656.0,286046999.6,N
1501534675.8,286046998.5,N
1501534695.6,286046999.0,N
1501534715.5,286046998.3,N
1501534735.3,286046998.9,N
1501534755.2,286046997.0,P
1501534775.1,286046996.9,N
1501534795.1,286046996.6,N
1501534796.0,286046996.6,N
